Погода в Устье

Россия / Воронежская область     51°33′37″N   39°01′15″E
темп.,
°C
ветер,
м/с
пор.,
м/с
влажн.,
%
обл.,
%
осадки,
мм/ч
давл.,
гПа
погр.,
м
18 октября, пн
пн1800:00+7сз357592 0.0 101673
03:00+5зсз34788 0.0 101682
06:00+4зсз378688 0.0 1016137
09:00+8з366093 0.0 1016723
12:00+11з574397 0.0 10151567
15:00+11зсз674398 0.0 10141701
18:00+9зсз5860100 0.0 1015754
21:00+7з3769100 0.1 1015303
19 октября, вт
вт1900:00+8зсз4668100 0.0 1015460
03:00+7зсз2577100 0.1 1015482
06:00+6сз3578100 0.0 1015204
09:00+6ссз4668100 0.0 1016492
12:00+9сз56497 0.0 10161428
15:00+9сз6746100 0.3 10161806
18:00+6сз6959100 0.0 10181198
21:00+4сз5867100 0.1 1019809
20 октября, ср
ср2000:00+3сз597948 0.0 1020610
03:00+2сз71080100 0.0 1021846
06:00+3сз6959100 0.0 10231435
09:00+3сз67535 0.0 10241032
12:00+5сз445080 0.0 10251142
15:00+6зсз444548 0.0 10251187
18:00+3зюз2253100 0.0 102525
21:00+2ююз364872 0.0 1024108
21 октября, чт
чт2100:00+4ююз51144100 0.0 1022377
03:00+6ююз71544100 0.0 1020527
06:00+5ююз81667100 0.6 1018555
09:00+8юз81767100 0.8 1017638
12:00+12зюз8156093 0.0 1015775
15:00+13юз81559100 0.0 1014749
18:00+13юз8156065 0.0 1013646
21:00+12юз81759100 0.0 1012667
22 октября, пт
пт2200:00+11юз8175999 0.0 1011698
03:00+10юз91758100 0.0 1009573
06:00+9юз81671100 0.0 1010567
09:00+10юз81482100 0.0 1010551
12:00+14зюз71163100 0.0 1011739
15:00+16зюз61054100 0.0 10111094
18:00+13юз3865100 0.0 1013165
21:00+11зюз357099 0.0 101471